Lapse_Rate
6.5 6.5 6.5 6.5 6.5 6.5 6.5 6.5 6.5 6.5 6.5 6.5 6.5 6.5 4.8 3.2 1.6 2.5 3.3 4.0 2.6 2.2 1.8 3.1 3.9 3.5 3.2 2.9 3.1 3.2 3.3 3.7 3.8 4.0 4.6 4.8 4.8 4.9 5.0 4.8 4.7 4.4 4.5 4.7
6.4 6.5 6.5 6.5 6.5 6.5 6.5 6.5 6.5 6.5 6.5 6.5 6.0 5.8 4.2 3.1 3.4 1.5 4.7 5.1 2.9 2.5 3.8 3.9 4.1 4.0 4.3 3.9 3.8 3.3 3.2 3.7 3.9 4.2 4.7 5.0 4.9 5.0 5.0 5.0 5.0 4.9 4.9 4.9
6.5 6.5 6.5 6.5 6.5 6.5 6.5 6.5 6.5 6.5 6.5 6.5 6.5 6.5 5.6 2.0 1.0 3.7 5.4 5.2 4.0 4.4 3.7 3.7 5.0 4.8 4.3 4.3 4.1 4.0 4.2 4.8 4.8 4.9 5.1 5.7 5.9 5.8 5.6 5.2 5.0 5.2 5.4 5.5
6.5 6.5 6.5 6.5 6.5 6.5 6.5 6.5 6.5 6.5 6.5 6.4 6.3 5.6 5.1 3.0 4.4 6.5 6.1 3.9 4.5 4.2 4.4 4.6 4.6 4.0 4.3 4.6 4.6 4.7 5.1 4.7 3.9 3.1 3.2 3.7 4.2 4.4 4.8 4.8 4.7 4.4 4.4 4.7
6.5 6.5 6.5 6.5 6.5 6.5 6.5 6.5 6.5 6.5 6.5 6.6 6.6 5.7 6.3 6.3 5.3 3.7 5.6 3.9 3.9 3.8 4.5 4.3 4.4 4.2 4.7 5.2 5.3 4.7 3.9 3.1 2.7 2.9 3.2 3.3 3.2 3.5 4.3 4.2 3.9 3.9 4.1 3.9
6.5 6.5 6.5 6.5 6.5 6.6 6.5 6.6 6.5 6.4 6.5 6.4 5.5 6.5 6.5 4.6 4.5 4.5 4.2 5.4 4.3 4.3 4.7 4.6 4.3 4.0 4.2 4.8 3.6 3.1 3.3 2.7 2.8 2.2 2.6 3.1 3.5 4.1 5.0 4.6 3.7 3.6 3.8 4.3
6.5 6.5 6.5 6.5 6.4 5.6 6.5 6.5 6.4 6.6 6.3 5.5 6.4 4.6 2.0 3.0 4.3 4.4 4.6 4.3 4.3 4.1 4.3 3.9 3.7 3.6 3.6 3.0 3.2 3.6 3.7 3.5 2.3 3.1 3.5 4.1 5.1 5.3 7.4 7.0 4.7 4.4 4.8 5.4
6.5 6.5 6.5 6.2 6.4 6.5 6.0 5.8 5.0 3.6 4.8 6.1 5.5 5.3 5.0 4.1 4.7 4.0 3.9 4.8 3.9 4.2 3.7 3.3 3.5 3.7 2.3 3.1 3.5 3.4 3.4 2.4 2.6 2.9 4.3 6.4 6.6 6.6 5.8 5.1 5.3 5.8 5.7 5.8
6.5 6.5 6.0 6.4 5.7 3.8 2.4 3.6 3.4 3.2 2.4 5.3 5.0 5.5 4.5 3.7 3.9 4.7 4.3 4.6 4.4 3.9 3.8 3.8 3.1 3.0 2.7 3.4 2.5 2.0 2.1 2.3 2.8 3.9 7.3 5.1 6.8 6.2 5.3 6.1 5.1 5.0 4.9 5.3
6.5 6.5 6.5 6.2 5.1 4.7 5.2 4.1 2.5 2.4 4.1 5.2 4.8 5.2 5.3 4.3 4.1 4.2 4.7 4.2 5.1 4.7 3.8 3.8 3.9 3.5 2.6 1.5 2.0 2.9 2.7 3.1 4.4 5.5 6.6 8.4 8.1 8.1 7.9 7.0 5.6 4.8 6.2 6.2
6.5 6.3 4.8 5.5 5.6 4.7 3.9 4.1 3.4 6.2 5.3 5.4 5.2 6.0 5.7 5.6 4.4 4.6 5.2 4.9 4.3 4.2 3.7 3.5 3.3 2.8 2.1 2.4 2.4 2.8 3.8 5.0 6.6 5.6 5.3 5.2 7.9 7.1 7.2 7.6 6.1 5.6 4.5 5.3
6.5 5.6 5.8 5.5 4.8 4.5 6.4 5.6 5.2 6.4 6.8 5.3 5.0 5.2 4.5 4.2 4.3 4.4 4.2 3.9 3.9 3.9 3.8 3.4 3.4 3.2 3.4 3.1 3.1 3.8 5.2 5.1 4.7 4.9 4.4 4.8 7.2 5.7 5.6 4.3 3.9 1.5 1.5 5.1
5.2 6.6 5.3 6.1 6.8 6.3 6.0 6.3 6.5 6.8 4.7 5.1 4.5 3.9 4.0 3.7 3.5 3.3 3.6 3.9 4.0 4.0 4.4 4.3 4.7 4.4 4.3 4.5 5.0 5.2 4.8 4.7 4.6 4.9 4.6 4.3 4.1 3.9 4.1 2.9 0.4 -0.1 0.1 2.0
6.4 5.9 5.8 6.2 5.5 5.8 6.1 4.7 4.2 6.3 2.9 3.1 4.3 4.3 3.5 3.6 3.8 3.6 3.8 3.7 4.0 4.2 4.9 5.3 5.3 5.5 6.3 6.1 6.1 5.8 5.2 5.9 4.5 4.4 4.5 4.4 4.0 4.1 3.6 4.0 3.3 2.9 -0.3 2.4
6.8 7.0 6.6 6.3 6.2 6.7 5.6 4.7 3.5 5.1 4.4 4.4 4.7 4.6 3.9 4.1 4.0 3.9 4.0 4.4 4.7 5.0 5.4 5.5 5.4 5.7 6.5 6.9 6.1 5.2 5.2 4.1 4.2 4.4 4.0 4.5 4.4 4.4 4.3 4.1 3.9 4.1 3.6 2.4
6.8 6.3 6.9 6.9 6.8 7.0 7.1 5.0 4.2 3.6 5.2 5.6 6.0 4.1 3.6 4.1 4.0 4.5 4.7 4.9 5.0 5.2 5.4 5.3 5.1 5.6 6.1 6.0 5.1 4.6 4.1 5.4 5.5 4.6 4.4 4.2 4.2 4.5 4.2 4.1 4.1 3.9 3.2 3.2
6.7 6.5 6.9 6.7 6.9 6.9 7.0 6.4 5.1 3.2 4.1 4.3 5.0 4.4 4.5 4.6 5.0 4.7 5.5 5.8 5.6 5.3 5.3 5.3 5.3 5.9 6.0 5.9 5.0 4.5 4.1 4.7 5.7 4.6 4.5 4.8 4.8 4.8 4.3 4.2 4.5 4.8 2.9 3.1
7.2 7.3 7.4 7.2 6.7 6.7 6.8 6.3 4.7 3.5 3.2 4.0 5.1 5.1 5.4 5.5 5.1 5.0 5.2 4.8 5.4 5.5 5.3 5.1 5.3 5.8 5.6 5.8 5.0 4.6 4.7 5.3 4.9 4.8 5.0 5.1 4.8 4.4 4.6 4.6 4.9 4.9 3.6 3.4
7.6 7.5 7.6 7.8 7.5 7.0 6.4 6.3 5.2 4.1 3.1 2.5 3.4 3.8 5.0 5.3 5.9 5.5 5.2 5.1 5.2 5.3 5.4 5.3 5.9 6.3 6.0 6.2 5.8 4.7 5.2 5.3 5.2 4.8 5.6 5.8 5.4 5.4 5.1 5.1 5.3 5.1 5.3 5.5
7.1 7.4 6.8 7.3 7.4 7.5 6.8 6.2 6.7 4.9 3.9 3.9 3.4 3.8 4.3 4.8 5.6 5.9 5.6 5.6 5.6 5.8 6.0 5.1 5.1 5.0 5.6 5.6 6.2 4.6 5.8 5.6 5.5 4.9 5.1 5.7 5.7 5.6 5.4 5.7 5.4 5.7 5.8 5.4
7.7 7.7 6.7 6.6 6.8 5.9 5.8 5.6 6.5 5.4 4.7 4.4 4.5 4.9 4.4 4.4 5.1 5.3 5.1 4.8 5.6 6.6 5.4 5.1 5.5 5.1 5.4 5.4 5.4 5.1 5.1 4.2 4.8 4.5 4.9 4.8 5.7 6.0 5.4 5.8 5.7 5.8 5.5 5.4
7.3 7.3 6.7 6.9 6.8 5.9 6.1 5.8 5.0 4.9 4.9 4.9 4.9 5.0 5.2 4.3 4.1 4.0 4.1 4.1 4.3 4.0 4.7 4.0 4.6 5.6 5.9 6.4 6.1 6.1 5.7 6.0 5.1 4.8 4.7 6.2 5.9 6.2 6.1 6.1 5.6 5.3 5.3 4.7
7.1 7.5 7.3 7.1 6.6 5.7 4.9 4.9 5.0 5.2 5.2 5.5 5.1 5.3 5.6 5.0 4.7 4.7 4.5 4.8 4.6 4.4 4.8 5.1 5.1 5.0 4.6 4.3 4.8 5.5 5.9 5.7 5.4 4.4 5.6 5.9 5.1 4.9 4.8 5.6 5.7 5.2 5.6 4.8
6.3 7.2 7.3 7.6 6.6 6.3 6.1 5.8 5.0 4.6 4.4 5.3 5.2 5.5 5.4 5.3 5.0 4.9 5.0 4.6 4.5 5.1 4.3 4.2 5.5 4.6 3.6 3.5 3.8 4.5 5.5 5.7 5.7 5.5 4.7 4.8 4.6 5.2 4.5 5.2 5.5 4.9 5.5 5.3
6.6 6.5 7.3 6.9 5.9 5.4 6.1 5.9 5.8 4.9 5.0 5.0 5.7 5.3 4.8 5.1 5.1 5.0 4.5 4.7 4.1 3.5 4.5 4.0 4.2 3.8 3.9 3.8 4.4 5.3 5.1 4.7 5.1 4.2 5.3 4.6 5.1 5.1 4.2 5.4 5.8 5.3 4.9 5.4
6.4 6.2 5.6 6.0 5.6 5.5 5.3 4.9 5.0 4.9 4.5 4.7 5.0 4.9 4.9 4.6 4.5 3.9 4.3 3.3 4.0 3.3 3.9 5.2 4.3 2.8 3.5 4.0 4.1 4.8 4.8 4.7 4.9 4.5 4.3 4.6 4.5 4.1 4.6 4.1 4.7 4.1 4.8 4.9
5.7 4.5 6.2 6.1 3.9 5.3 6.0 5.4 5.3 5.9 5.3 5.2 5.0 4.4 4.5 3.7 3.5 2.9 2.9 4.0 4.1 4.7 4.8 5.3 5.0 3.6 4.8 4.4 4.7 6.2 4.7 5.1 4.7 5.3 4.2 5.1 5.1 5.0 4.3 4.0 3.8 3.6 3.9 4.2
Wind_Speed
9 8 4 6 5 12 7 8 5 14 13 6 7 5 7 4 10 17 16 15 14 11 7 7 11 10 9 8 8 8 8 7 7 7 7 7 7 7 7 7 6 6 6 6
4 8 9 8 12 9 15 14 15 11 5 8 3 2 4 10 9 8 19 11 17 16 11 7 8 8 9 8 7 8 7 6 5 6 6 5 5 5 5 5 5 5 6 5
6 6 10 9 9 15 1 16 17 7 9 5 5 7 8 7 12 23 21 14 17 13 10 9 8 8 8 8 7 7 6 4 5 5 5 4 4 5 5 6 5 5 5 5
5 5 4 4 17 14 16 5 6 7 10 15 9 14 15 19 25 23 16 19 16 13 11 10 7 9 8 7 7 6 4 6 7 8 7 7 7 6 6 5 6 5 6 7
4 4 7 9 10 7 8 5 3 6 4 5 8 6 13 21 17 14 16 19 13 10 11 11 11 8 8 7 6 8 7 7 6 6 6 5 5 5 3 4 4 5 5 6
1 6 5 2 10 12 9 5 15 12 2 6 8 5 6 9 11 9 7 15 13 16 16 14 9 9 8 7 9 7 6 6 6 6 4 4 4 5 3 2 4 4 6 6
1 4 1 1 8 12 5 4 15 3 5 10 5 2 4 12 17 12 11 17 15 13 12 9 9 8 8 9 7 5 5 5 5 3 3 3 3 2 4 5 5 6 6 5
4 4 3 2 6 3 4 4 4 11 11 12 4 7 13 14 16 18 17 16 15 13 9 8 6 8 10 8 5 6 5 6 5 5 3 3 5 4 5 5 5 4 5 4
3 3 1 1 4 6 8 5 3 2 8 10 13 9 11 12 12 13 13 10 11 11 10 9 9 9 8 5 7 7 6 4 3 3 2 2 4 4 3 5 4 4 3 4
2 2 2 3 2 5 8 6 6 5 9 9 14 12 10 12 9 8 9 7 7 12 11 9 7 8 7 7 6 3 3 3 2 3 2 4 4 3 4 2 3 4 4 4
2 5 10 7 6 10 11 13 12 8 5 8 9 11 11 11 8 6 7 6 7 10 9 8 8 8 7 6 5 3 2 4 2 2 5 4 3 2 2 1 2 1 3 3
2 2 7 4 8 8 5 7 8 1 3 10 12 11 8 7 7 7 8 8 8 10 9 9 8 7 6 6 5 3 2 2 1 1 3 2 1 2 5 8 2 10 7 6
1 2 2 3 4 6 8 8 7 5 9 10 7 11 7 9 7 11 8 9 8 8 8 8 7 7 6 7 6 6 4 4 2 4 4 3 3 4 3 6 10 11 11 7
8 8 7 9 7 10 8 8 13 4 11 11 10 9 11 11 8 9 8 8 8 8 7 6 7 5 2 5 4 4 5 5 3 2 4 3 5 4 4 4 4 3 4 3
6 6 6 9 8 12 14 15 12 3 14 10 8 13 12 8 7 8 8 8 8 7 6 7 6 3 2 1 4 5 2 5 3 2 3 3 1 3 3 3 4 3 3 1
7 10 9 10 11 12 12 14 12 12 5 11 15 16 15 10 10 8 8 7 8 6 7 7 6 4 4 3 4 4 3 7 3 2 2 4 3 4 4 4 4 4 4 2
6 6 6 7 8 10 10 9 11 12 7 7 14 15 14 14 11 8 7 7 6 7 7 7 6 5 4 2 3 2 4 3 3 3 4 3 2 3 2 3 3 2 4 4
6 6 6 6 7 9 9 8 11 13 8 3 10 12 15 13 10 8 7 6 8 7 7 7 7 6 4 2 2 2 3 2 3 3 3 3 3 3 1 3 3 3 3 3
5 5 6 6 5 5 6 7 7 9 9 9 12 8 9 9 10 9 7 8 8 7 7 7 9 7 3 4 1 2 3 3 4 4 2 3 1 2 2 2 3 3 2 2
6 5 6 5 6 4 5 6 7 8 8 3 5 9 4 7 7 7 7 8 7 5 9 8 8 7 7 6 7 3 1 4 4 4 3 2 1 1 2 3 3 2 2 2
4 3 7 5 6 6 5 5 4 5 6 7 5 4 6 8 5 6 7 5 5 4 7 12 8 5 4 6 5 4 5 5 5 5 4 4 2 2 3 2 2 1 3 3
3 1 5 5 5 4 3 3 3 3 4 4 5 4 3 5 6 5 4 1 3 7 5 5 5 7 5 8 4 4 5 2 4 3 3 3 2 1 1 4 4 3 2 4
1 1 4 3 6 6 4 3 3 3 3 2 3 3 1 2 3 3 1 4 3 5 5 5 8 12 10 6 4 4 4 4 3 4 3 3 3 3 3 4 4 4 4 4
4 3 2 0 6 5 4 5 5 5 5 4 4 3 1 2 3 2 6 7 5 1 8 9 3 7 8 4 5 5 5 5 3 4 4 6 4 4 5 4 4 3 4 3
1 2 2 2 4 4 5 6 6 6 6 6 7 7 8 5 4 4 4 3 10 7 7 16 13 9 4 4 4 4 5 5 5 6 5 5 5 5 5 5 4 5 5 3
5 3 3 6 4 1 4 3 3 4 4 4 4 6 6 6 7 6 6 8 9 11 9 8 4 5 5 5 6 6 5 5 6 6 6 5 5 5 5 6 4 5 5 4
4 3 1 1 2 3 3 3 3 2 2 3 3 3 5 6 7 7 8 8 8 9 8 8 6 7 5 5 6 8 6 5 6 5 5 5 4 5 5 6 6 5 5 5
Wind_Direction
125 188 188 201 272 292 290 273 204 152 140 155 212 233 129 133 29 342 322 126 127 121 100 113 109 103 98 90 81 78 78 78 77 71 55 47 38 29 17 12 1 356 352 347
256 196 156 233 237 270 283 91 73 65 85 211 239 292 173 139 110 305 289 198 133 128 120 122 112 116 112 106 102 92 88 86 88 83 72 53 31 14 2 343 333 337 332 330
263 230 205 237 226 236 321 137 143 130 228 191 138 182 125 137 124 217 252 183 127 123 123 134 131 117 109 108 105 104 107 108 103 93 77 59 26 7 356 351 352 341 326 323
222 278 267 108 25 10 116 153 99 115 181 200 173 188 166 184 184 211 222 140 137 145 142 146 117 112 118 108 115 115 111 78 61 60 53 35 30 25 10 1 1 352 341 348
160 224 251 22 14 1 20 83 280 158 167 103 130 120 215 211 185 214 201 133 147 155 152 120 124 119 108 102 99 80 75 78 71 67 48 35 18 354 346 7 348 338 347 338
229 199 238 210 315 300 243 79 19 334 357 182 145 181 226 153 163 188 179 139 119 114 112 108 107 103 98 96 88 79 78 84 58 44 40 15 342 327 330 358 316 303 299 296
19 80 219 298 286 296 62 242 318 313 213 200 236 221 307 119 116 136 114 116 113 107 111 108 105 104 95 93 84 85 67 74 82 45 359 24 22 320 309 316 310 296 284 282
18 76 24 211 305 145 171 240 37 5 350 117 11 133 139 110 126 124 118 107 104 104 108 98 91 94 94 90 95 74 62 65 41 36 4 5 355 344 340 310 307 338 1 358
27 213 12 24 223 171 192 152 141 66 319 184 109 111 109 112 107 104 115 116 118 118 107 90 85 88 101 102 80 66 62 59 29 358 48 5 8 352 346 14 21 357 10 5
259 302 194 91 261 244 243 265 252 248 229 136 119 117 109 106 106 101 109 107 107 107 109 108 106 96 103 91 89 98 67 33 295 256 255 34 18 353 356 7 355 352 3 9
111 42 14 342 232 251 250 258 255 264 85 125 121 135 129 127 127 134 121 118 102 105 115 112 100 93 99 105 89 57 139 255 307 36 81 45 10 357 352 302 196 39 17 23
138 126 169 212 358 321 3 349 348 111 140 144 137 137 130 122 119 109 98 95 96 106 117 116 118 122 134 144 156 183 309 131 243 213 136 167 148 303 254 236 9 139 124 78
23 322 28 291 304 352 1 332 325 248 148 131 120 122 114 114 111 113 109 107 108 117 119 126 135 152 187 177 192 196 197 235 249 207 195 187 201 218 254 41 111 130 125 136
32 15 9 351 314 314 330 22 347 25 100 92 109 104 100 107 105 110 112 113 105 106 113 123 125 133 183 165 182 256 214 197 251 280 220 206 215 239 225 166 161 161 192 158
37 351 340 311 10 17 23 11 356 153 133 129 121 118 116 112 106 108 113 111 114 122 126 115 119 153 198 267 206 251 275 184 231 304 307 221 41 10 12 130 139 163 113 278
14 38 14 13 7 9 13 4 349 331 195 156 147 138 138 134 127 124 127 135 137 149 150 142 148 200 186 245 262 273 234 171 206 301 34 40 35 22 352 75 90 88 120 125
52 29 12 17 11 6 1 2 343 318 215 150 147 142 135 129 127 127 141 150 143 142 145 148 168 193 201 321 350 284 163 209 230 84 66 37 6 344 344 103 85 69 159 171
75 49 34 22 13 9 351 8 0 351 11 110 133 135 127 131 138 143 164 152 140 152 157 163 177 196 155 93 354 334 344 110 115 111 78 3 330 313 6 97 74 54 151 210
92 71 47 37 17 12 1 22 15 4 10 360 89 91 118 120 143 138 152 152 165 174 202 178 180 175 209 208 257 316 301 142 124 136 117 336 67 355 49 84 77 86 85 71
82 91 76 4 13 41 26 32 19 30 16 32 96 104 121 116 157 155 164 178 190 176 180 180 180 192 200 219 239 257 268 170 174 173 173 204 136 130 114 101 135 162 146 122
95 90 102 66 33 79 59 18 79 64 32 27 61 105 133 106 98 136 159 169 213 198 179 173 190 204 196 180 230 264 272 196 193 187 180 185 174 251 183 165 155 257 202 168
46 334 131 118 104 102 108 122 117 114 114 93 52 50 27 104 111 93 103 153 300 273 183 183 205 217 193 180 200 242 286 56 197 165 156 118 171 196 186 191 198 243 227 177
293 324 300 160 116 129 166 184 192 180 177 183 173 151 78 32 41 50 354 309 309 337 286 204 210 217 202 192 209 224 260 285 277 161 168 183 229 220 235 250 230 224 157 191
206 216 277 291 160 171 192 192 197 210 196 193 211 185 169 263 295 236 240 250 196 319 307 304 227 179 186 206 218 216 221 233 211 209 218 214 221 254 234 239 250 191 183 199
307 281 182 255 255 245 236 230 200 201 210 212 208 193 187 201 206 259 235 244 219 228 236 263 239 210 206 213 222 227 220 220 231 239 226 222 227 224 222 227 226 192 212 191
275 245 246 226 227 267 197 196 217 222 211 235 226 186 193 214 202 201 194 206 210 220 228 248 213 193 201 200 224 230 227 233 241 233 220 225 244 245 223 220 233 197 202 195
301 15 291 257 131 221 122 153 174 257 202 226 145 166 176 182 202 198 202 216 221 222 228 238 241 188 198 210 218 233 222 229 243 226 196 222 228 211 212 195 194 199 206 209